Tracking 28790 objects as of 19-Apr-2024
HD Live streaming from Space Station
objects crossing your sky now

FENGYUN 1C DEB

Track FENGYUN 1C DEB now!
10-day predictions


NORAD ID: 30915
Int'l Code: 1999-025AZD
Perigee: 797.6 km
Apogee: 883.9 km
Inclination: 99.0 °
Period: 101.6 minutes
Semi major axis: 7211 km
RCS: 0.019 m2 (small)
Launch date: May 10, 1999
Source: People's Republic of China (PRC)
Launch site: Taiyaun Space Center, China (TSC)

Note: This is SATELLITE DEBRIS
Your satellite tracking list
Your tracking list is empty




NASA's NSSDC Master Catalog

Two Line Element Set (TLE):
1 30915U 99025AZD 24110.13845009  .00008787  00000-0  42678-2 0  9990
2 30915  98.9723 171.2830 0059827  97.7361 263.0612 14.17561401879907
Source of the keplerian elements: AFSPC